Luquillo, PR (00773)

8:16 PM AST on September 25, 2018 (GMT -0400)
Hacienda Margarita | | Change Station
Active Advisory: Coastal Hazard Statement Active Notice: Coastal Hazard Statement

Elev 335 ft 18.34 °N, 65.72 °W | Updated 17 seconds ago

Partly Cloudy
Partly Cloudy
77.7 °F
Feels Like 80 °F
N
4.9
Wind Variable Wind from ESE
Gusts 5.8 mph

Today
High -- | Low -- °F
--% Chance of Precip.
Yesterday
High -- | Low -- °F
Precip. -- in
Pressure 29.99 in
Visibility 10.0 miles
Clouds Clear
Heat Index 80 °F
Dew Point 76 °F
Humidity 94%
Rainfall 1.11 in
Snow Depth Not available.
6:12 AM 6:16 PM
Full, 99% visible
METAR TJNR 252353Z AUTO 07009KT 10SM CLR 28/26 A2998 RMK AO2 SLP153 60000 T02780261 10294 20272 51004
Pressure 29.99 in
Visibility 10.0 miles
Clouds Clear
Heat Index 80 °F
Dew Point 76 °F
Humidity 94%
Rainfall 1.11 in
Snow Depth Not available.
6:12 AM 6:16 PM
Full, 99% visible
METAR TJNR 252353Z AUTO 07009KT 10SM CLR 28/26 A2998 RMK AO2 SLP153 60000 T02780261 10294 20272 51004

Get Your Daily Forecast Email!

Thanks for signing up!

Be on the lookout for a verification email in your inbox.

You'll start receiving severe weather alerts in your inbox..

×

10-Day Weather Forecast

Almanac

Astronomy

Sep. 25, 2018 Rise Set
Actual Time
Civil Twilight
Nautical Twilight
Astronomical Twilight
Moon
Length of Visible Light
Length of Day
Tomorrow will be .
, % of the Moon is Illuminated

Today's Extremes

State Highs State Lows

Community

WunderPhotos

Category 6

Welcome to Category 6. This is the collective home for Weather Underground's featured writeups by Dr. Jeff Masters (right), Bob Henson (left), Chris Burt, and other regular contributors.

Nearby

Air Quality

  Air Quality AQ Index Pollutant
Not available.

Snow Depth

Station Depth Elevation

Earthquake Activity

City Distance Mag. Time & Date
Minimum magnitude displayed is 2.5.

Coastal Water Temperatures

Place Temperature

Stations

Nearby Weather Stations

Station Location Temp. Windchill Dew Point Humidity Wind Precip. Elev Updated Type
                   

Watches & Warnings

Coastal Hazard Statement
Issued: 11:13 AM AST Sep. 25, 2018 – National Weather Service

... High rip current risk remains in effect through late tonight...

* location... northern beaches of Puerto Rico and Culebra. Northern
beaches of St. Thomas and Rincon.

* Timing... through late tonight.

* Impacts... life threatening currents that can carry even the
best swimmers out to sea.

Precautionary/preparedness actions...

There is a high risk of rip currents.

Swim near a lifeguard. If caught in a rip current, relax and
float. Don't swim against the current. If able, swim in a
direction following the shoreline. If unable to escape, face the
shore and call or wave for help.